Tracking 19149 objects as of 22-Apr-2018
HD Live streaming from Space Station
objects crossing your sky now

FENGYUN 1C DEB

Track FENGYUN 1C DEB now!
10-day predictions


NORAD ID: 31010
Int'l Code: 1999-025BDC
Perigee: 796.5 km
Apogee: 1,026.7 km
Inclination: 101.8 °
Period: 103.1 minutes
Semi major axis: 7282 km
RCS: 0.015 m2 (small)
Launch date: May 10, 1999
Source: People's Republic of China (PRC)
Launch site: Taiyaun Space Center, China (TSC)

Note: This is SATELLITE DEBRIS
aabbcc
Your satellite tracking list
Your tracking list is empty




NASA's NSSDC Master Catalog

Two Line Element Set (TLE):
1 31010U 99025BDC 18111.52081415  .00001116  00000-0  76388-3 0  9992
2 31010 101.7540 134.5294 0158054 179.9236 180.1966 13.96926252564442
Source of the keplerian elements: AFSPC